BCS21G EDDP-EHAM

Flight info

Callsign BCS21G
Flight time 0h 58m
Altitude 30000
Route ORTAG5N ORTAG Q230 KUMER DCT NORKU
Aircraft B763/H-SDE3FGHIM3RWXY/LB1

Departure

Time 2026-05-06 11:29
Airport Leipzig/Halle Airport (EDDP)

Arrival

Time 2026-05-06 12:27
Airport Amsterdam Airport Schiphol (EHAM)
Time Latitude Longitude Altitude Speed Heading
2026-05-06 11:09 51.40891 12.23390 464 ft 0 kts 85°
2026-05-06 11:20 51.40890 12.23371 464 ft 2 kts 86°
2026-05-06 11:21 51.40889 12.23356 464 ft 1 kts 86°
2026-05-06 11:21 51.40887 12.23333 465 ft 2 kts 64°
2026-05-06 11:21 51.40879 12.23314 465 ft 2 kts 45°
2026-05-06 11:21 51.40868 12.23300 465 ft 2 kts 26°
2026-05-06 11:22 51.40855 12.23294 465 ft 0 kts
2026-05-06 11:22 51.40846 12.23293 465 ft 1 kts 355°
2026-05-06 11:22 51.40844 12.23293 464 ft 0 kts 355°
2026-05-06 11:23 51.40845 12.23293 464 ft 0 kts 355°
2026-05-06 11:23 51.40856 12.23292 465 ft 2 kts 356°
2026-05-06 11:23 51.40883 12.23289 465 ft 5 kts 356°
2026-05-06 11:24 51.40925 12.23285 466 ft 7 kts 355°
2026-05-06 11:24 51.40982 12.23279 467 ft 7 kts
2026-05-06 11:24 51.41024 12.23347 466 ft 11 kts 56°
2026-05-06 11:24 51.41044 12.23511 463 ft 19 kts 84°
2026-05-06 11:25 51.41056 12.23762 461 ft 25 kts 86°
2026-05-06 11:25 51.41070 12.24064 456 ft 26 kts 85°
2026-05-06 11:25 51.41083 12.24362 452 ft 27 kts 85°
2026-05-06 11:25 51.41101 12.24663 449 ft 27 kts 83°
2026-05-06 11:26 51.41112 12.24959 449 ft 26 kts 86°
2026-05-06 11:26 51.41124 12.25234 453 ft 23 kts 85°
2026-05-06 11:26 51.41135 12.25473 458 ft 19 kts 85°
2026-05-06 11:26 51.41174 12.25624 463 ft 13 kts 22°
2026-05-06 11:27 51.41265 12.25619 464 ft 13 kts 356°
2026-05-06 11:27 51.41354 12.25610 466 ft 10 kts 356°
2026-05-06 11:27 51.41401 12.25562 466 ft 8 kts 288°
2026-05-06 11:27 51.41398 12.25530 465 ft 0 kts 265°
2026-05-06 11:28 51.41392 12.25408 463 ft 35 kts 265°
2026-05-06 11:28 51.41357 12.24641 454 ft 101 kts 265°
2026-05-06 11:28 51.41289 12.23194 468 ft 156 kts 265°
2026-05-06 11:29 51.41200 12.21290 724 ft 189 kts 263°
2026-05-06 11:29 51.40977 12.19020 1097 ft 223 kts 263°
2026-05-06 11:29 51.40783 12.16324 1317 ft 259 kts 265°
2026-05-06 11:29 51.40629 12.13445 1686 ft 264 kts 266°
2026-05-06 11:30 51.40498 12.10580 2817 ft 257 kts 266°
2026-05-06 11:30 51.40385 12.07808 3903 ft 255 kts 266°
2026-05-06 11:30 51.40276 12.04980 4858 ft 258 kts 266°
2026-05-06 11:30 51.40171 12.02137 5781 ft 261 kts 266°
2026-05-06 11:31 51.40066 11.99244 6741 ft 263 kts 265°
2026-05-06 11:31 51.39961 11.96358 7617 ft 267 kts 265°
2026-05-06 11:31 51.39852 11.93400 8529 ft 269 kts 265°
2026-05-06 11:31 51.39709 11.90420 9444 ft 272 kts 264°
2026-05-06 11:32 51.39558 11.87402 10254 ft 277 kts 264°
2026-05-06 11:32 51.39402 11.84280 10766 ft 294 kts 264°
2026-05-06 11:32 51.39233 11.80947 11293 ft 311 kts 264°
2026-05-06 11:32 51.39057 11.77456 12040 ft 320 kts 264°
2026-05-06 11:33 51.38898 11.73904 12927 ft 323 kts 268°
2026-05-06 11:33 51.39193 11.70315 13724 ft 332 kts 282°
2026-05-06 11:33 51.39752 11.66768 14524 ft 336 kts 281°
2026-05-06 11:33 51.40302 11.63137 15333 ft 340 kts 281°
2026-05-06 11:34 51.40867 11.59450 16116 ft 344 kts 281°
2026-05-06 11:34 51.41435 11.55748 16871 ft 349 kts 281°
2026-05-06 11:34 51.42019 11.51938 17593 ft 353 kts 281°
2026-05-06 11:34 51.42601 11.48151 18290 ft 358 kts 280°
2026-05-06 11:35 51.43193 11.44276 19062 ft 361 kts 280°
2026-05-06 11:35 51.43785 11.40395 19772 ft 365 kts 280°
2026-05-06 11:35 51.44390 11.36423 20459 ft 369 kts 280°
2026-05-06 11:35 51.44999 11.32422 21226 ft 371 kts 279°
2026-05-06 11:36 51.45609 11.28392 21825 ft 376 kts 279°
2026-05-06 11:36 51.46220 11.24352 22543 ft 378 kts 280°
2026-05-06 11:36 51.46838 11.20257 23176 ft 383 kts 280°
2026-05-06 11:36 51.47462 11.16108 23826 ft 386 kts 280°
2026-05-06 11:37 51.48092 11.11917 24444 ft 390 kts 280°
2026-05-06 11:37 51.48715 11.07707 25007 ft 394 kts 278°
2026-05-06 11:37 51.49221 11.03386 25571 ft 397 kts 277°
2026-05-06 11:37 51.49723 10.99005 26132 ft 401 kts 277°
2026-05-06 11:38 51.50228 10.94599 26662 ft 405 kts 277°
2026-05-06 11:38 51.50735 10.90166 27157 ft 409 kts 277°
2026-05-06 11:38 51.51247 10.85673 27710 ft 412 kts 277°
2026-05-06 11:38 51.51758 10.81178 28167 ft 417 kts 277°
2026-05-06 11:39 51.52279 10.76580 28669 ft 420 kts 277°
2026-05-06 11:39 51.52802 10.71955 29207 ft 422 kts 277°
2026-05-06 11:39 51.53324 10.67309 29592 ft 428 kts 277°
2026-05-06 11:39 51.53950 10.62677 29772 ft 432 kts 283°
2026-05-06 11:40 51.54883 10.58043 29761 ft 434 kts 284°
2026-05-06 11:40 51.56730 10.48874 29756 ft 433 kts 285°
2026-05-06 11:41 51.58584 10.39669 29756 ft 434 kts 285°
2026-05-06 11:41 51.60448 10.30383 29755 ft 436 kts 284°
2026-05-06 11:42 51.62289 10.21177 29752 ft 435 kts 284°
2026-05-06 11:42 51.64131 10.11915 29755 ft 436 kts 284°
2026-05-06 11:43 51.65968 10.02638 29753 ft 438 kts 285°
2026-05-06 11:43 51.67815 9.93274 29751 ft 439 kts 285°
2026-05-06 11:44 51.70557 9.79272 29753 ft 439 kts 285°
2026-05-06 11:44 51.72383 9.69897 29752 ft 440 kts 285°
2026-05-06 11:45 51.74204 9.60493 29754 ft 442 kts 285°
2026-05-06 11:45 51.76028 9.51031 29758 ft 446 kts 286°
2026-05-06 11:46 51.77860 9.41487 29753 ft 446 kts 286°
2026-05-06 11:46 51.79682 9.31939 29752 ft 446 kts 286°
2026-05-06 11:47 51.81493 9.22407 29753 ft 445 kts 286°
2026-05-06 11:47 51.83289 9.12904 29759 ft 443 kts 286°
2026-05-06 11:48 51.85076 9.03396 29770 ft 443 kts 287°
2026-05-06 11:48 51.86853 8.93897 29776 ft 441 kts 287°
2026-05-06 11:49 51.88623 8.84385 29788 ft 441 kts 287°
2026-05-06 11:49 51.90380 8.74901 29809 ft 446 kts 287°
2026-05-06 11:50 51.91263 8.70113 29804 ft 457 kts 287°
2026-05-06 11:50 51.92188 8.65089 29809 ft 467 kts 287°
2026-05-06 11:50 51.94069 8.54820 29801 ft 487 kts 287°
2026-05-06 11:51 51.95998 8.44227 29800 ft 493 kts 287°
2026-05-06 11:51 51.97906 8.33693 29810 ft 493 kts 286°
2026-05-06 11:52 51.99839 8.22974 29809 ft 495 kts 286°
2026-05-06 11:52 52.01735 8.12362 29818 ft 494 kts 286°
2026-05-06 11:53 52.03635 8.01681 29818 ft 492 kts 286°
2026-05-06 11:53 52.04567 7.96421 29812 ft 474 kts 286°
2026-05-06 11:53 52.05444 7.91451 29812 ft 456 kts 286°
2026-05-06 11:54 52.06302 7.86580 29811 ft 440 kts 286°
2026-05-06 11:54 52.07124 7.81900 29810 ft 429 kts 286°
2026-05-06 11:54 52.08769 7.72502 29840 ft 440 kts 286°
2026-05-06 11:55 52.10435 7.62927 29823 ft 442 kts 286°
2026-05-06 11:55 52.12091 7.53363 29614 ft 441 kts 286°
2026-05-06 11:56 52.12902 7.48657 29610 ft 430 kts 286°
2026-05-06 11:56 52.13705 7.43987 28967 ft 424 kts 286°
2026-05-06 11:56 52.14477 7.39483 28444 ft 415 kts 286°
2026-05-06 11:56 52.15247 7.34985 27926 ft 412 kts 285°
2026-05-06 11:57 52.16009 7.30513 27422 ft 409 kts 285°
2026-05-06 11:57 52.16761 7.26098 26941 ft 405 kts 285°
2026-05-06 11:57 52.17506 7.21709 26486 ft 401 kts 285°
2026-05-06 11:57 52.18238 7.17381 26057 ft 397 kts 286°
2026-05-06 11:58 52.18965 7.13083 25656 ft 391 kts 285°
2026-05-06 11:58 52.19679 7.08849 25292 ft 385 kts 285°
2026-05-06 11:58 52.20379 7.04683 24829 ft 382 kts 285°
2026-05-06 11:58 52.21073 7.00579 24487 ft 376 kts 287°
2026-05-06 11:59 52.22123 6.96701 24046 ft 373 kts 303°
2026-05-06 11:59 52.23694 6.93362 23647 ft 370 kts 309°
2026-05-06 11:59 52.25320 6.90145 23222 ft 370 kts 309°
2026-05-06 11:59 52.26921 6.86943 22837 ft 368 kts 309°
2026-05-06 12:00 52.28546 6.83690 22429 ft 366 kts 309°
2026-05-06 12:00 52.30142 6.80491 22033 ft 364 kts 309°
2026-05-06 12:00 52.31715 6.77337 21665 ft 362 kts 309°
2026-05-06 12:00 52.33300 6.74149 21283 ft 359 kts 308°
2026-05-06 12:01 52.34868 6.70997 20901 ft 360 kts 308°
2026-05-06 12:01 52.36436 6.67835 20483 ft 356 kts 308°
2026-05-06 12:01 52.38001 6.64680 20097 ft 356 kts 308°
2026-05-06 12:01 52.39544 6.61565 19706 ft 353 kts 308°
2026-05-06 12:02 52.41086 6.58448 19311 ft 351 kts 308°
2026-05-06 12:02 52.42607 6.55373 18950 ft 348 kts 308°
2026-05-06 12:02 52.44125 6.52292 18580 ft 347 kts 308°
2026-05-06 12:02 52.45592 6.49228 18182 ft 343 kts 302°
2026-05-06 12:03 52.46617 6.45728 17829 ft 342 kts 285°
2026-05-06 12:03 52.47010 6.41920 17499 ft 339 kts 276°
2026-05-06 12:03 52.47240 6.38080 17108 ft 337 kts 276°
2026-05-06 12:03 52.47458 6.34294 16727 ft 335 kts 275°
2026-05-06 12:04 52.47660 6.30531 16385 ft 334 kts 275°
2026-05-06 12:04 52.47855 6.26766 16028 ft 331 kts 275°
2026-05-06 12:04 52.48045 6.23009 15674 ft 329 kts 275°
2026-05-06 12:04 52.48229 6.19320 15332 ft 328 kts 275°
2026-05-06 12:05 52.48411 6.15612 14988 ft 328 kts 275°
2026-05-06 12:05 52.48592 6.11886 14623 ft 325 kts 275°
2026-05-06 12:05 52.48768 6.08238 14282 ft 324 kts 275°
2026-05-06 12:05 52.48944 6.04551 13942 ft 322 kts 275°
2026-05-06 12:06 52.49117 6.00899 13627 ft 321 kts 275°
2026-05-06 12:06 52.49287 5.97300 13310 ft 320 kts 275°
2026-05-06 12:06 52.49459 5.93647 12963 ft 319 kts 275°
2026-05-06 12:06 52.49628 5.90035 12635 ft 317 kts 275°
2026-05-06 12:07 52.49793 5.86462 12315 ft 316 kts 275°
2026-05-06 12:07 52.49960 5.82856 11970 ft 316 kts 275°
2026-05-06 12:07 52.50121 5.79324 11656 ft 315 kts 275°
2026-05-06 12:07 52.50285 5.75729 11339 ft 314 kts 275°
2026-05-06 12:08 52.50444 5.72183 10998 ft 312 kts 276°
2026-05-06 12:08 52.50603 5.68641 10680 ft 311 kts 276°
2026-05-06 12:08 52.50759 5.65150 10371 ft 310 kts 275°
2026-05-06 12:08 52.50915 5.61620 10180 ft 304 kts 276°
2026-05-06 12:09 52.50888 5.58279 10143 ft 291 kts 258°
2026-05-06 12:09 52.50170 5.55218 9904 ft 288 kts 244°
2026-05-06 12:09 52.49237 5.52312 9595 ft 287 kts 243°
2026-05-06 12:09 52.48269 5.49441 9291 ft 286 kts 242°
2026-05-06 12:10 52.47288 5.46648 8998 ft 285 kts 241°
2026-05-06 12:10 52.46287 5.43855 8701 ft 283 kts 240°
2026-05-06 12:10 52.45289 5.41107 8400 ft 283 kts 240°
2026-05-06 12:10 52.44284 5.38362 8115 ft 282 kts 240°
2026-05-06 12:11 52.43268 5.35600 7803 ft 281 kts 240°
2026-05-06 12:11 52.42265 5.32881 7511 ft 280 kts 239°
2026-05-06 12:11 52.41264 5.30173 7234 ft 279 kts 239°
2026-05-06 12:11 52.40262 5.27470 6949 ft 279 kts 239°
2026-05-06 12:12 52.39258 5.24761 6680 ft 278 kts 239°
2026-05-06 12:12 52.38258 5.22068 6365 ft 278 kts 239°
2026-05-06 12:12 52.37260 5.19386 6099 ft 277 kts 239°
2026-05-06 12:12 52.36261 5.16701 5814 ft 276 kts 239°
2026-05-06 12:13 52.35268 5.14038 5544 ft 275 kts 239°
2026-05-06 12:13 52.34266 5.11351 5263 ft 275 kts 239°
2026-05-06 12:13 52.33278 5.08708 5047 ft 271 kts 239°
2026-05-06 12:13 52.32308 5.06131 5054 ft 268 kts 238°
2026-05-06 12:14 52.31280 5.03569 5048 ft 268 kts 237°
2026-05-06 12:14 52.30242 5.01028 4905 ft 270 kts 237°
2026-05-06 12:14 52.29213 4.98493 4888 ft 268 kts 237°
2026-05-06 12:14 52.28178 4.95954 4776 ft 271 kts 237°
2026-05-06 12:15 52.27136 4.93382 4659 ft 273 kts 237°
2026-05-06 12:15 52.26097 4.90826 4617 ft 273 kts 237°
2026-05-06 12:15 52.25044 4.88244 4564 ft 273 kts 237°
2026-05-06 12:15 52.23994 4.85675 4456 ft 273 kts 237°
2026-05-06 12:16 52.22937 4.83094 4232 ft 272 kts 237°
2026-05-06 12:16 52.21893 4.80547 4001 ft 273 kts 237°
2026-05-06 12:16 52.20838 4.77966 3746 ft 272 kts 238°
2026-05-06 12:16 52.19794 4.75409 3498 ft 270 kts 238°
2026-05-06 12:17 52.18769 4.72906 3250 ft 269 kts 238°
2026-05-06 12:17 52.17732 4.70391 2999 ft 269 kts 237°
2026-05-06 12:17 52.16688 4.67881 2754 ft 269 kts 238°
2026-05-06 12:17 52.15646 4.65377 2504 ft 263 kts 237°
2026-05-06 12:18 52.14628 4.62934 2235 ft 258 kts 238°
2026-05-06 12:18 52.13637 4.60563 1998 ft 253 kts 238°
2026-05-06 12:18 52.12671 4.58267 1959 ft 236 kts 238°
2026-05-06 12:18 52.11776 4.56153 2009 ft 221 kts 237°
2026-05-06 12:19 52.10944 4.54135 2008 ft 207 kts 246°
2026-05-06 12:19 52.10693 4.52041 1982 ft 179 kts 289°
2026-05-06 12:19 52.11288 4.50493 1989 ft 151 kts 335°
2026-05-06 12:19 52.12204 4.49747 2027 ft 150 kts 343°
2026-05-06 12:20 52.13166 4.49075 2001 ft 147 kts 343°
2026-05-06 12:20 52.14085 4.48425 1992 ft 145 kts 343°
2026-05-06 12:20 52.15023 4.47763 1998 ft 146 kts 342°
2026-05-06 12:20 52.15955 4.47107 1994 ft 147 kts 343°
2026-05-06 12:21 52.16885 4.46453 1992 ft 146 kts 343°
2026-05-06 12:21 52.17831 4.45908 1981 ft 141 kts 359°
2026-05-06 12:21 52.18735 4.46257 2005 ft 135 kts 43°
2026-05-06 12:21 52.19221 4.47590 2059 ft 141 kts 64°
2026-05-06 12:22 52.19642 4.49046 1990 ft 141 kts 60°
2026-05-06 12:22 52.20092 4.50436 1981 ft 136 kts 59°
2026-05-06 12:22 52.20558 4.51804 2030 ft 145 kts 58°
2026-05-06 12:22 52.21079 4.53277 2006 ft 152 kts 57°
2026-05-06 12:23 52.21612 4.54749 1979 ft 147 kts 57°
2026-05-06 12:23 52.22141 4.56173 1993 ft 145 kts 57°
2026-05-06 12:23 52.22665 4.57560 1999 ft 145 kts 56°
2026-05-06 12:23 52.23180 4.58915 1975 ft 131 kts 56°
2026-05-06 12:24 52.23637 4.60110 1968 ft 128 kts 55°
2026-05-06 12:24 52.24133 4.61383 1821 ft 135 kts 55°
2026-05-06 12:24 52.24646 4.62691 1613 ft 136 kts 54°
2026-05-06 12:24 52.25138 4.63970 1391 ft 135 kts 56°
2026-05-06 12:25 52.25634 4.65294 1180 ft 137 kts 56°
2026-05-06 12:25 52.26143 4.66575 987 ft 134 kts 56°
2026-05-06 12:25 52.26630 4.67869 796 ft 136 kts 55°
2026-05-06 12:25 52.27146 4.69187 666 ft 137 kts 57°
2026-05-06 12:26 52.27657 4.70501 479 ft 136 kts 60°
2026-05-06 12:26 52.28142 4.71796 286 ft 135 kts 55°
2026-05-06 12:26 52.28660 4.73079 116 ft 138 kts 58°
2026-05-06 12:26 52.29166 4.74404 10 ft 130 kts 59°
2026-05-06 12:27 52.29581 4.75464 0 ft 94 kts 55°
2026-05-06 12:27 52.29876 4.76231 0 ft 67 kts 56°
2026-05-06 12:27 52.30078 4.76834 -1 ft 43 kts 43°
2026-05-06 12:27 52.30244 4.77197 3 ft 37 kts 60°
2026-05-06 12:28 52.30308 4.77496 4 ft 22 kts 117°
2026-05-06 12:28 52.30176 4.77493 2 ft 21 kts 214°
2026-05-06 12:28 52.30084 4.77312 2 ft 19 kts 237°
2026-05-06 12:28 52.30011 4.77127 1 ft 20 kts 237°
2026-05-06 12:29 52.29934 4.76929 -1 ft 21 kts 238°
2026-05-06 12:29 52.29850 4.76786 -1 ft 16 kts 234°
2026-05-06 12:29 52.29788 4.76637 0 ft 11 kts 236°
2026-05-06 12:29 52.29756 4.76633 0 ft 5 kts 151°
2026-05-06 12:30 52.29722 4.76668 0 ft 6 kts 148°
2026-05-06 12:30 52.29693 4.76697 1 ft 0 kts 148°
2026-05-06 12:30 52.29693 4.76698 1 ft 0 kts 148°